Regional Weather Roundup
Issued by NWS

Home | Current Version | Previous Version | Text Only | Print | Product List | Glossary On
Versions: 1 2 3 4 5 6 7 8 9 10 11 12 13 14 15 16 17 18 19 20 21 22 23 24 25 26 27 28 29 30 31 32 33 34 35 36 37 38 39 40 41 42 43 44 45 46 47 48
000
ASUS45 KREV 212310
RWRNV
NEVADA REGIONAL WEATHER ROUNDUP
NATIONAL WEATHER SERVICE RENO NV
300 PM PST SUN DEC 21 2014

NOTE: "FAIR" INDICATES FEW OR NO CLOUDS BELOW 12,000 FEET WITH NO
SIGNIFICANT WEATHER AND/OR OBSTRUCTIONS TO VISIBILITY.

NVZ001-003-004-220000-
WESTERN NEVADA

CITY           SKY/WX    TMP DP  RH WIND       PRES   REMARKS
RENO           CLOUDY    61  40  45 NW13G21   30.21R
CARSON CITY    FAIR      59  37  44 W15G22    30.21S
MINDEN         FAIR      57  37  47 W13G22    30.24
SLIDE MTN        N/A     36  32  87 N26         N/A
PYRAMID LAKE     N/A     57 N/A N/A SE3         N/A
FALLON         CLOUDY    60  42  51 W22       30.16S
LOVELOCK       CLOUDY    56  44  64 W10       30.14S
HAWTHORNE      SUNNY     55  36  47 CALM      30.20R
$$

NVZ002-CAZ072-073-220000-
NORTHERN AND CENTRAL SIERRA

CITY           SKY/WX    TMP DP  RH WIND       PRES   REMARKS
S. LAKE TAHOE  PTSUNNY   52  37  56 S6        30.30R
TRUCKEE        PTSUNNY   48  39  71 W8        30.28F
SQUAW VLY 8000   N/A     37  36  93 VRB16       N/A
BLUE CANYON    FOG       47  44  90 W3        30.31R VSB 3/4
MAMMOTH LAKES  FAIR      57  25  28 NW10      30.27R
BRIDGEPORT     FAIR      54  30  40 N5        30.26R
$$

NVZ030-031-036-220000-
NORTHERN NEVADA

CITY           SKY/WX    TMP DP  RH WIND       PRES   REMARKS
ELKO           CLOUDY    49  43  80 SW14      30.05R
WINNEMUCCA     CLOUDY    53  43  68 S3        30.11R
WENDOVER       MOSUNNY   55  39  54 NW20      29.95R
$$

NVZ035-037-220000-
CENTRAL NEVADA

CITY           SKY/WX    TMP DP  RH WIND       PRES   REMARKS
ELY            LGT RAIN  47  39  74 E5        30.13R
EUREKA           N/A     51  39  63 W12G21    30.14R
$$

NVZ013-014-220000-
SOUTH CENTRAL NEVADA

CITY           SKY/WX    TMP DP  RH WIND       PRES   REMARKS
TONOPAH        CLOUDY    56  35  45 N25G37    30.18R
$$

NVZ017-020-022-220000-
SOUTHERN NEVADA

CITY           SKY/WX    TMP DP  RH WIND       PRES   REMARKS
LAS VEGAS      PTSUNNY   56  38  50 CALM      30.05R
N. LAS VEGAS   MOSUNNY   55  37  50 CALM      30.07S
NELLIS AFB     MOSUNNY   55  40  55 E1        30.08S
HENDERSON      MOSUNNY   54  39  57 N6        30.09S
MERCURY        CLOUDY    51  38  60 SW8       30.10F
$$


USA.gov is the U.S. government's official web portal to all federal, state and local government web resources and services.